sat.trackr.live / text

‹ back to catalog

STARLINK-38076

NORAD 69740 · 2026-150B

PAYLOAD ACTIVE UNKNOWN

§ Identity

Operator
Country
US
Launch date
2026-07-02
Launch site
AFWTR
Launch vehicle
Mass (kg)
RCS (m²)

Purposes: comms

External: N2YO · Heavens-Above · Gunter

§ Orbital elements

Epoch: 2026-09-19T18:45:00.565056Z

Period
93.90 min
Inclination
97.2895°
Eccentricity
0.0002041
Mean motion
15.33479477 rev/d
Perigee alt
464.0 km
Apogee alt
466.8 km
Semi-major
6,843.6 km
B*
5.9939e-4
RAAN
101.6913°
Arg perigee
117.4586°
Mean anomaly
242.6864°
Rev number
1,362

§ Raw data

STARLINK-380761 69740U 26150B   26262.78125654  .00019347  00000+0  59939-3 0  99972 69740  97.2895 101.6913 0002041 117.4586 242.6864 15.33479477 13622

JSON: /api/v1/satellites/69740 · /tle

For live sub-satellite position, see the globe view (requires WebGL).

§ Visibility from observer

Set your observer location to see the next 7 days of passes ≥ 10°. The values pass through the URL so the page stays shareable.

No JS? Fill the form by hand. The geolocation button needs JavaScript.